TimeCST,TemperatureF,Dew PointF,Humidity,Sea Level PressureIn,VisibilityMPH,Wind Direction,Wind SpeedMPH,Gust SpeedMPH,PrecipitationIn,Events,Conditions,WindDirDegrees,DateUTC
12:15 AM,30.2,23.0,75,29.69,10.0,West,13.8,24.2,N/A,,Overcast,270,2014-01-12 06:15:00
12:35 AM,28.4,23.0,80,29.70,10.0,West,12.7,-,N/A,,Overcast,260,2014-01-12 06:35:00
12:55 AM,28.4,23.0,80,29.70,10.0,West,11.5,18.4,N/A,,Overcast,260,2014-01-12 06:55:00
1:15 AM,28.4,23.0,80,29.71,10.0,West,13.8,20.7,N/A,,Overcast,270,2014-01-12 07:15:00
1:35 AM,28.4,23.0,80,29.71,10.0,West,13.8,-,N/A,,Overcast,260,2014-01-12 07:35:00
1:55 AM,28.4,23.0,80,29.72,10.0,West,13.8,17.3,N/A,,Overcast,260,2014-01-12 07:55:00
2:15 AM,28.4,23.0,80,29.73,10.0,WSW,6.9,-,N/A,,Overcast,250,2014-01-12 08:15:00
2:35 AM,28.4,23.0,80,29.75,10.0,WSW,5.8,-,N/A,,Overcast,250,2014-01-12 08:35:00
2:55 AM,28.4,23.0,80,29.75,10.0,SW,5.8,-,N/A,,Overcast,230,2014-01-12 08:55:00
3:15 AM,26.6,23.0,86,29.74,10.0,WSW,4.6,-,N/A,,Overcast,240,2014-01-12 09:15:00
3:35 AM,26.6,23.0,86,29.73,10.0,WSW,5.8,-,N/A,,Overcast,240,2014-01-12 09:35:00
3:55 AM,26.6,23.0,86,29.73,10.0,WSW,5.8,-,N/A,,Mostly Cloudy,240,2014-01-12 09:55:00
4:15 AM,26.6,23.0,86,29.74,10.0,WSW,6.9,-,N/A,,Mostly Cloudy,240,2014-01-12 10:15:00
4:35 AM,26.6,23.0,86,29.73,10.0,SSW,4.6,-,N/A,,Mostly Cloudy,210,2014-01-12 10:35:00
4:55 AM,26.6,23.0,86,29.74,10.0,SW,4.6,-,N/A,,Mostly Cloudy,220,2014-01-12 10:55:00
5:15 AM,26.6,23.0,86,29.73,10.0,SW,5.8,-,N/A,,Mostly Cloudy,220,2014-01-12 11:15:00
5:35 AM,24.8,21.2,86,29.73,10.0,Calm,Calm,-,N/A,,Scattered Clouds,0,2014-01-12 11:35:00
5:55 AM,24.8,21.2,86,29.73,10.0,Calm,Calm,-,N/A,,Mostly Cloudy,0,2014-01-12 11:55:00
6:15 AM,24.8,21.2,86,29.73,10.0,SSW,3.5,-,N/A,,Scattered Clouds,210,2014-01-12 12:15:00
6:35 AM,24.8,23.0,93,29.73,7.0,SSW,6.9,-,N/A,,Scattered Clouds,200,2014-01-12 12:35:00
6:55 AM,24.8,21.2,86,29.72,7.0,SSW,5.8,-,N/A,,Scattered Clouds,210,2014-01-12 12:55:00
7:15 AM,24.8,23.0,93,29.72,7.0,SSW,5.8,-,N/A,,Mostly Cloudy,200,2014-01-12 13:15:00
7:35 AM,26.6,23.0,86,29.72,10.0,SSW,5.8,-,N/A,,Mostly Cloudy,200,2014-01-12 13:35:00
7:55 AM,26.6,23.0,86,29.72,10.0,SSW,6.9,-,N/A,,Mostly Cloudy,200,2014-01-12 13:55:00
8:15 AM,26.6,23.0,86,29.73,10.0,SSW,9.2,-,N/A,,Overcast,200,2014-01-12 14:15:00
8:35 AM,28.4,23.0,80,29.73,10.0,SSW,10.4,-,N/A,,Overcast,200,2014-01-12 14:35:00
8:55 AM,28.4,23.0,80,29.73,10.0,South,9.2,-,N/A,,Overcast,190,2014-01-12 14:55:00
9:15 AM,30.2,23.0,75,29.73,10.0,SSW,8.1,-,N/A,,Mostly Cloudy,200,2014-01-12 15:15:00
9:35 AM,30.2,24.8,80,29.71,10.0,South,8.1,-,N/A,,Scattered Clouds,180,2014-01-12 15:35:00
9:55 AM,30.2,24.8,80,29.71,10.0,South,11.5,17.3,N/A,,Mostly Cloudy,180,2014-01-12 15:55:00
10:15 AM,32.0,24.8,75,29.71,10.0,South,12.7,17.3,N/A,,Overcast,180,2014-01-12 16:15:00
10:35 AM,32.0,26.6,80,29.70,10.0,SSE,8.1,-,N/A,,Overcast,160,2014-01-12 16:35:00
10:55 AM,32.0,26.6,80,29.68,10.0,SSE,8.1,16.1,N/A,,Scattered Clouds,160,2014-01-12 16:55:00
11:15 AM,33.8,26.6,75,29.66,10.0,South,15.0,20.7,N/A,,Clear,180,2014-01-12 17:15:00
11:35 AM,33.8,26.6,75,29.63,10.0,South,13.8,21.9,N/A,,Clear,180,2014-01-12 17:35:00
11:55 AM,33.8,24.8,70,29.61,10.0,South,15.0,20.7,N/A,,Clear,180,2014-01-12 17:55:00
12:15 PM,35.6,24.8,65,29.59,10.0,South,13.8,23.0,N/A,,Clear,180,2014-01-12 18:15:00
12:35 PM,35.6,24.8,65,29.57,10.0,South,10.4,19.6,N/A,,Clear,170,2014-01-12 18:35:00
12:55 PM,35.6,26.6,70,29.56,10.0,South,8.1,17.3,N/A,,Clear,170,2014-01-12 18:55:00
1:15 PM,37.4,26.6,65,29.55,10.0,South,12.7,17.3,N/A,,Clear,190,2014-01-12 19:15:00
1:35 PM,37.4,26.6,65,29.55,10.0,South,18.4,24.2,N/A,,Clear,180,2014-01-12 19:35:00
1:55 PM,37.4,26.6,65,29.53,10.0,South,12.7,20.7,N/A,,Clear,190,2014-01-12 19:55:00
2:15 PM,39.2,26.6,61,29.55,10.0,SSW,9.2,-,N/A,,Clear,200,2014-01-12 20:15:00
2:35 PM,39.2,26.6,61,29.55,10.0,SSW,8.1,-,N/A,,Clear,200,2014-01-12 20:35:00
2:55 PM,39.2,26.6,61,29.55,10.0,SSW,10.4,-,N/A,,Clear,200,2014-01-12 20:55:00
3:15 PM,39.2,26.6,61,29.55,10.0,SSW,10.4,17.3,N/A,,Clear,200,2014-01-12 21:15:00
3:35 PM,37.4,26.6,65,29.54,10.0,South,10.4,17.3,N/A,,Clear,180,2014-01-12 21:35:00
3:55 PM,37.4,26.6,65,29.54,10.0,South,9.2,-,N/A,,Clear,180,2014-01-12 21:55:00
4:15 PM,37.4,26.6,65,29.55,10.0,SSW,8.1,-,N/A,,Clear,200,2014-01-12 22:15:00
4:35 PM,37.4,26.6,65,29.55,10.0,SSW,11.5,16.1,N/A,,Clear,200,2014-01-12 22:35:00
4:55 PM,37.4,28.4,70,29.55,10.0,SSW,9.2,17.3,N/A,,Clear,210,2014-01-12 22:55:00
5:15 PM,37.4,28.4,70,29.56,10.0,SSW,16.1,21.9,N/A,,Clear,210,2014-01-12 23:15:00
5:35 PM,37.4,28.4,70,29.55,10.0,SSW,13.8,23.0,N/A,,Clear,200,2014-01-12 23:35:00
5:55 PM,37.4,28.4,70,29.57,10.0,SSW,11.5,24.2,N/A,,Clear,210,2014-01-12 23:55:00
6:15 PM,37.4,30.2,75,29.57,10.0,SSW,16.1,21.9,N/A,,Clear,210,2014-01-13 00:15:00
6:35 PM,37.4,30.2,75,29.57,10.0,SSW,13.8,20.7,N/A,,Clear,210,2014-01-13 00:35:00
6:55 PM,37.4,30.2,75,29.57,10.0,SSW,13.8,21.9,N/A,,Clear,210,2014-01-13 00:55:00
7:15 PM,37.4,30.2,75,29.56,10.0,SSW,12.7,19.6,N/A,,Clear,210,2014-01-13 01:15:00
7:35 PM,37.4,30.2,75,29.56,10.0,SSW,10.4,16.1,N/A,,Clear,200,2014-01-13 01:35:00
7:55 PM,37.4,30.2,75,29.56,10.0,SSW,13.8,18.4,N/A,,Clear,200,2014-01-13 01:55:00
8:15 PM,37.4,30.2,75,29.56,10.0,SSW,11.5,16.1,N/A,,Clear,200,2014-01-13 02:15:00
8:35 PM,37.4,32.0,81,29.56,10.0,SSW,9.2,-,N/A,,Clear,200,2014-01-13 02:35:00
8:55 PM,37.4,32.0,81,29.55,10.0,SSW,10.4,16.1,N/A,,Clear,200,2014-01-13 02:55:00
9:15 PM,37.4,32.0,81,29.55,10.0,SSW,9.2,-,N/A,,Clear,200,2014-01-13 03:15:00
9:35 PM,37.4,32.0,81,29.55,10.0,SSW,9.2,-,N/A,,Clear,200,2014-01-13 03:35:00
9:55 PM,37.4,32.0,81,29.55,10.0,SSW,9.2,-,N/A,,Clear,200,2014-01-13 03:55:00
10:15 PM,37.4,32.0,81,29.54,10.0,SSW,8.1,-,N/A,,Clear,200,2014-01-13 04:15:00
10:35 PM,37.4,32.0,81,29.53,10.0,SSW,9.2,-,N/A,,Clear,200,2014-01-13 04:35:00
10:55 PM,37.4,32.0,81,29.54,10.0,SSW,10.4,-,N/A,,Clear,200,2014-01-13 04:55:00
11:15 PM,37.4,32.0,81,29.53,10.0,SSW,11.5,16.1,N/A,,Clear,200,2014-01-13 05:15:00
11:35 PM,37.4,32.0,81,29.53,10.0,SSW,8.1,-,N/A,,Clear,210,2014-01-13 05:35:00
11:55 PM,37.4,32.0,81,29.53,10.0,SSW,11.5,-,N/A,,Clear,210,2014-01-13 05:55:00